Météo par heure à Alice Springs

Ce jour, 28 Octobre, Mercredi

Heure Température Précipitation Vent Pression Humidité
00:00 +21°C° 0 mm 3 m/s 710 mmHg 18%
01:00 +21°C° 0 mm 3 m/s 710 mmHg 19%
02:00 +20°C° 0 mm 3 m/s 709 mmHg 20%
03:00 +19°C° 0 mm 2 m/s 710 mmHg 20%
04:00 +19°C° 0 mm 2 m/s 710 mmHg 21%
05:00 +19°C° 0 mm 2 m/s 711 mmHg 22%
06:00 +19°C° 0 mm 2 m/s 711 mmHg 22%
07:00 +23°C° 0 mm 2 m/s 712 mmHg 19%
08:00 +25°C° 0 mm 2 m/s 712 mmHg 16%
09:00 +28°C° 0 mm 2 m/s 713 mmHg 14%
10:00 +29°C° 0 mm 2 m/s 712 mmHg 13%
11:00 +30°C° 0 mm 2 m/s 712 mmHg 12%
12:00 +32°C° 0 mm 2 m/s 712 mmHg 11%
13:00 +34°C° 0 mm 2 m/s 711 mmHg 10%
14:00 +34°C° 0 mm 3 m/s 710 mmHg 9%
15:00 +35°C° 0 mm 4 m/s 709 mmHg 8%
16:00 +34°C° 0 mm 4 m/s 710 mmHg 8%
17:00 +34°C° 0 mm 4 m/s 710 mmHg 9%
18:00 +33°C° 0 mm 5 m/s 710 mmHg 9%
19:00 +30°C° 0 mm 5 m/s 710 mmHg 11%
20:00 +28°C° 0 mm 5 m/s 710 mmHg 13%
21:00 +26°C° 0 mm 5 m/s 711 mmHg 14%
22:00 +26°C° 0 mm 4 m/s 710 mmHg 15%
23:00 +25°C° 0 mm 4 m/s 710 mmHg 16%

Demain, 29 Octobre, Jeudi

Heure Température Précipitation Vent Pression Humidité
00:00 +24°C° 0 mm 3 m/s 710 mmHg 16%
01:00 +24°C° 0 mm 3 m/s 710 mmHg 17%
02:00 +22°C° 0 mm 3 m/s 709 mmHg 17%
03:00 +22°C° 0 mm 3 m/s 709 mmHg 17%
04:00 +22°C° 0 mm 3 m/s 709 mmHg 17%
05:00 +22°C° 0 mm 3 m/s 710 mmHg 17%
06:00 +22°C° 0 mm 3 m/s 710 mmHg 18%
07:00 +26°C° 0 mm 4 m/s 710 mmHg 15%
08:00 +29°C° 0 mm 5 m/s 711 mmHg 13%
09:00 +33°C° 0 mm 7 m/s 711 mmHg 10%
10:00 +34°C° 0 mm 6 m/s 711 mmHg 9%
11:00 +35°C° 0 mm 5 m/s 710 mmHg 9%
12:00 +37°C° 0 mm 4 m/s 710 mmHg 8%
13:00 +37°C° 0 mm 4 m/s 709 mmHg 7%
14:00 +39°C° 0 mm 5 m/s 708 mmHg 7%
15:00 +39°C° 0 mm 5 m/s 707 mmHg 7%
16:00 +38°C° 0 mm 4 m/s 707 mmHg 9%
17:00 +37°C° 0 mm 4 m/s 707 mmHg 10%
18:00 +36°C° 0 mm 3 m/s 707 mmHg 11%
19:00 +35°C° 0 mm 3 m/s 707 mmHg 12%
20:00 +33°C° 0 mm 4 m/s 707 mmHg 13%
21:00 +32°C° 0 mm 4 m/s 708 mmHg 15%
22:00 +29°C° 0 mm 5 m/s 708 mmHg 19%
23:00 +28°C° 0 mm 6 m/s 708 mmHg 24%

Après-demain, 30 Octobre, Vendredi

Heure Température Précipitation Vent Pression Humidité
00:00 +26°C° 0 mm 7 m/s 708 mmHg 29%
01:00 +24°C° 0 mm 7 m/s 708 mmHg 29%
02:00 +23°C° 0 mm 7 m/s 708 mmHg 29%
03:00 +22°C° 0 mm 7 m/s 708 mmHg 29%
04:00 +21°C° 0 mm 7 m/s 708 mmHg 29%
05:00 +20°C° 0 mm 7 m/s 709 mmHg 28%
06:00 +18°C° 0 mm 7 m/s 709 mmHg 28%
07:00 +20°C° 0 mm 7 m/s 710 mmHg 27%
08:00 +21°C° 0 mm 7 m/s 710 mmHg 27%
09:00 +22°C° 0 mm 8 m/s 710 mmHg 26%
10:00 +23°C° 0 mm 7 m/s 710 mmHg 23%
11:00 +26°C° 0 mm 7 m/s 710 mmHg 19%
12:00 +27°C° 0 mm 7 m/s 710 mmHg 16%
13:00 +28°C° 0 mm 6 m/s 709 mmHg 14%
14:00 +29°C° 0 mm 6 m/s 709 mmHg 12%
15:00 +29°C° 0 mm 6 m/s 708 mmHg 10%
16:00 +28°C° 0 mm 6 m/s 708 mmHg 11%
17:00 +27°C° 0 mm 5 m/s 709 mmHg 12%
18:00 +26°C° 0 mm 5 m/s 709 mmHg 13%
19:00 +25°C° 0 mm 5 m/s 709 mmHg 15%
20:00 +23°C° 0 mm 4 m/s 709 mmHg 17%
21:00 +21°C° 0 mm 4 m/s 709 mmHg 20%
22:00 +21°C° 0 mm 4 m/s 709 mmHg 21%
23:00 +20°C° 0 mm 4 m/s 709 mmHg 23%

31 Octobre, Samedi

Heure Température Précipitation Vent Pression Humidité
00:00 +19°C° 0 mm 4 m/s 708 mmHg 24%
01:00 +18°C° 0 mm 4 m/s 708 mmHg 26%
02:00 +18°C° 0 mm 4 m/s 708 mmHg 27%
03:00 +17°C° 0 mm 4 m/s 707 mmHg 28%
04:00 +15°C° 0 mm 5 m/s 708 mmHg 32%
05:00 +15°C° 0 mm 5 m/s 708 mmHg 37%
06:00 +15°C° 0 mm 5 m/s 708 mmHg 41%
07:00 +17°C° 0 mm 6 m/s 709 mmHg 37%
08:00 +20°C° 0 mm 6 m/s 709 mmHg 33%
09:00 +22°C° 0 mm 6 m/s 710 mmHg 29%
10:00 +23°C° 0 mm 5 m/s 710 mmHg 25%
11:00 +26°C° 0 mm 4 m/s 709 mmHg 22%
12:00 +28°C° 0 mm 3 m/s 709 mmHg 18%
13:00 +28°C° 0 mm 2 m/s 709 mmHg 17%
14:00 +29°C° 0 mm 2 m/s 708 mmHg 15%
15:00 +30°C° 0 mm 1 m/s 708 mmHg 14%
16:00 +30°C° 0 mm 2 m/s 708 mmHg 14%
17:00 +30°C° 0 mm 2 m/s 708 mmHg 15%
18:00 +30°C° 0 mm 3 m/s 708 mmHg 15%
19:00 +28°C° 0 mm 3 m/s 708 mmHg 17%
20:00 +27°C° 0 mm 4 m/s 708 mmHg 19%
21:00 +25°C° 0 mm 5 m/s 709 mmHg 21%
22:00 +23°C° 0 mm 5 m/s 708 mmHg 22%
23:00 +23°C° 0 mm 4 m/s 708 mmHg 24%

1 Novembre, Dimanche

Heure Température Précipitation Vent Pression Humidité
00:00 +22°C° 0 mm 4 m/s 708 mmHg 25%
01:00 +22°C° 0 mm 4 m/s 708 mmHg 26%
02:00 +21°C° 0 mm 4 m/s 708 mmHg 27%
03:00 +21°C° 0 mm 3 m/s 708 mmHg 27%
04:00 +21°C° 0 mm 4 m/s 708 mmHg 28%
05:00 +21°C° 0 mm 4 m/s 708 mmHg 28%
06:00 +21°C° 0 mm 4 m/s 709 mmHg 28%
07:00 +25°C° 0 mm 4 m/s 709 mmHg 25%
08:00 +27°C° 0 mm 5 m/s 710 mmHg 21%
09:00 +30°C° 0 mm 5 m/s 710 mmHg 17%
10:00 +33°C° 0 mm 6 m/s 710 mmHg 15%
11:00 +35°C° 0 mm 6 m/s 710 mmHg 14%
12:00 +38°C° 0 mm 6 m/s 710 mmHg 13%
13:00 +37°C° 0 mm 5 m/s 709 mmHg 13%
14:00 +37°C° 0 mm 4 m/s 709 mmHg 13%
15:00 +38°C° 0 mm 4 m/s 709 mmHg 13%
16:00 +37°C° 0 mm 3 m/s 709 mmHg 13%
17:00 +36°C° 0 mm 3 m/s 709 mmHg 14%
18:00 +35°C° 0 mm 2 m/s 709 mmHg 15%
19:00 +34°C° 0 mm 3 m/s 709 mmHg 16%
20:00 +33°C° 0 mm 3 m/s 709 mmHg 18%
21:00 +30°C° 0 mm 3 m/s 710 mmHg 19%
22:00 +30°C° 0 mm 4 m/s 710 mmHg 20%
23:00 +29°C° 0 mm 4 m/s 709 mmHg 20%

2 Novembre, Lundi

Heure Température Précipitation Vent Pression Humidité
00:00 +28°C° 0 mm 5 m/s 709 mmHg 21%
01:00 +27°C° 0 mm 5 m/s 709 mmHg 22%
02:00 +27°C° 0 mm 4 m/s 709 mmHg 22%
03:00 +26°C° 0 mm 4 m/s 709 mmHg 23%
04:00 +26°C° 0 mm 3 m/s 710 mmHg 24%
05:00 +26°C° 0 mm 3 m/s 710 mmHg 24%
06:00 +26°C° 0 mm 2 m/s 711 mmHg 25%
07:00 +29°C° 0 mm 3 m/s 711 mmHg 21%
08:00 +32°C° 0 mm 4 m/s 712 mmHg 17%
09:00 +35°C° 0 mm 5 m/s 712 mmHg 14%
10:00 +36°C° 0 mm 4 m/s 712 mmHg 13%
11:00 +38°C° 0 mm 4 m/s 712 mmHg 12%
12:00 +39°C° 0 mm 3 m/s 711 mmHg 12%
13:00 +39°C° 0 mm 3 m/s 711 mmHg 12%
14:00 +39°C° 0 mm 2 m/s 710 mmHg 12%
15:00 +40°C° 0 mm 2 m/s 710 mmHg 11%
16:00 +39°C° 0 mm 2 m/s 710 mmHg 12%
17:00 +39°C° 0 mm 2 m/s 710 mmHg 13%
18:00 +38°C° 0 mm 2 m/s 710 mmHg 14%
19:00 +37°C° 0 mm 3 m/s 710 mmHg 15%
20:00 +35°C° 0 mm 4 m/s 710 mmHg 15%
21:00 +34°C° 0 mm 5 m/s 711 mmHg 16%
22:00 +33°C° 0 mm 4 m/s 711 mmHg 17%
23:00 +32°C° 0 mm 4 m/s 710 mmHg 18%
Voir plus

Nous avons besoin de votre consentement

Meteoprog et ses fournisseurs de services peuvent stocker et accéder à des données personnelles telles que des cookies, des identifiants d'appareils ou d'autres technologies similaires sur votre appareil et traiter ces données pour personnaliser le contenu et les publicités, ainsi que pour fournir des fonctionnalités de médias sociaux et analyser le trafic.

  • Stocker et/ou accéder à des informations sur votre appareil

    Des cookies, des identifiants d'appareils ou d'autres informations peuvent être stockés ou accessibles sur votre appareil aux fins indiquées ci-dessus.

  • Annonces et contenus personnalisés, mesure des annonces et des contenus, connaissance de l'audience et développement de produits

    Les annonces et le contenu peuvent être personnalisés en fonction d'un profil. D'autres données peuvent être ajoutées pour mieux personnaliser les annonces et le contenu. Les performances des publicités et du contenu peuvent être mesurées. Il est possible d'obtenir des informations sur le public qui a vu les publicités et le contenu. Ces données peuvent être utilisées pour développer ou améliorer l'expérience de l'utilisateur, les systèmes et les logiciels.

En cliquant sur "J'accepte", vous autorisez l'utilisation de cookies, des identifiants d'appareils, des balises web ou d'autres technologies similaires. Vos paramètres peuvent être modifiés dans le navigateur de votre appareil.

Dans certains cas, des intérêts légitimes peuvent être invoqués plutôt qu'un consentement. Vous pouvez en savoir plus à ce sujet dans notre Politique de confidentialité et de cookies.